Find Kosmos-2285

NORAD ID: 23189 Int'l Des: 1994-045 Owner: TSSKB Country: RU operational
LEOCIRCULAR

Current View

Loading 3D Globe...

About Kosmos-2285

Description loading...

Upcoming Passes

Passes for default location (London). Set your location on the main map for personalized predictions.

Altitude History

Loading altitude history...

Two-Line Element Set

1 23189U 94045A 26151.20811690 .00000010 00000-0 35130-4 0 9994
2 23189 74.0269 141.4879 0024649 145.4211 303.6671 13.72524109594064
Epoch: May 31, 2026 • Age: 7 hours

Current Status

Altitude 977.6 km
Velocity 7.37 km/s
Sub-Earth Point 1.75°N, 114.89°W
Launch Date Aug 2, 1994
Age 31.8 years
Type other

Technical Details

Classification Payload
Mass 900.00 kg
Dry Mass 900.00 kg
Total Mass 900.00 kg
Length 5.00 m
Diameter 2.10 m
Span 17.00 m
Shape Cyl + Ant
Manufacturer TSSKB
Bus Type Obzor
Phase Status In Orbit
Owner/State TSSKB/RU

Most Searched